Regional Weather Roundup
Issued by NWS

Home | Current Version | Previous Version | Graphics & Text | Print | Product List | Glossary On
Versions: 1 2 3 4 5 6 7 8 9 10 11 12 13 14 15 16 17 18 19 20 21 22 23 24 25 26 27 28 29 30 31 32 33 34 35 36 37 38 39 40 41 42 43 44 45 46 47 48 49 50
498
ASUS43 KBIS 241502
RWRND

NORTH DAKOTA REGIONAL WEATHER ROUNDUP
NATIONAL WEATHER SERVICE BISMARCK ND
1000 AM CDT SAT SEP 24 2016

NOTE: "FAIR" INDICATES FEW OR NO CLOUDS BELOW 12,000 FEET WITH NO
SIGNIFICANT WEATHER AND/OR OBSTRUCTIONS TO VISIBILITY.


NDZ001>003-009>011-017-241600-
NORTHWEST NORTH DAKOTA

CITY           SKY/WX    TMP DP  RH WIND       PRES   REMARKS
WILLISTON      CLOUDY    57  54  89 N17       29.75F
MINOT          CLOUDY    63  63 100 E8        29.74S FOG
MINOT AFB      FOG       61  61  99 E8        29.74S VSB 1/4
$$

NDZ018>021-031>035-040>046-241600-
SOUTHWEST NORTH DAKOTA

CITY           SKY/WX    TMP DP  RH WIND       PRES   REMARKS
BISMARCK       SUNNY     68  63  84 E9        29.74F
DICKINSON      FOG       57  57 100 N10       29.71F VSB 1/4
GARRISON         N/A     63  63 100 E8        29.74R
HETTINGER ARPT CLOUDY    61  60  97 SE8       29.70F
$$

NDZ004>008-012>016-024-026-027-054-241600-
NORTHEAST NORTH DAKOTA

CITY           SKY/WX    TMP DP  RH WIND       PRES   REMARKS
GRAND FORKS    CLOUDY    67  63  87 SE15      29.86F
GRND FRKS AFB  CLOUDY    65  65  99 SE13      29.86F
DEVILS LAKE    CLOUDY    65  64  97 SE12      29.83R FOG
$$

NDZ022-023-025-028>030-036>039-047>053-241600-
SOUTHEAST NORTH DAKOTA

CITY           SKY/WX    TMP DP  RH WIND       PRES   REMARKS
FARGO          CLOUDY    70  64  81 SE22G31   29.88S
JAMESTOWN      CLOUDY    69  65  86 SE15G25   29.81R
$$





USA.gov is the U.S. government's official web portal to all federal, state and local government web resources and services.